Time,TemperatureF,DewpointF,PressureIn,WindDirection,WindDirectionDegrees,WindSpeedMPH,WindSpeedGustMPH,Humidity,HourlyPrecipIn,Conditions,Clouds,dailyrainin,SoftwareType,DateUTC
2013-01-15 00:06:00,39.0,38.5,29.89,North,0,2.7,-999.0,98,-99.99,,,0.00,Acu-Link.com,2013-01-15 05:06:00,
2013-01-15 00:21:00,39.2,38.7,29.88,NNE,22,0.0,-999.0,98,-99.99,,,0.00,Acu-Link.com,2013-01-15 05:21:00,
2013-01-15 00:37:00,39.4,38.9,29.89,North,0,0.0,-999.0,98,-99.99,,,0.00,Acu-Link.com,2013-01-15 05:37:00,
2013-01-15 00:52:00,39.4,38.9,29.89,ENE,67,0.0,-999.0,98,-99.99,,,0.00,Acu-Link.com,2013-01-15 05:52:00,
2013-01-15 01:07:00,39.4,38.9,29.88,North,0,0.0,-999.0,98,-99.99,,,0.01,Acu-Link.com,2013-01-15 06:07:00,
2013-01-15 01:22:00,39.6,39.1,29.88,West,270,0.0,-999.0,98,-99.99,,,0.01,Acu-Link.com,2013-01-15 06:22:00,
2013-01-15 01:37:00,39.6,39.1,29.87,NNW,337,3.2,-999.0,98,-99.99,,,0.01,Acu-Link.com,2013-01-15 06:37:00,
2013-01-15 01:52:00,39.6,39.1,29.87,WNW,292,2.2,-999.0,98,-99.99,,,0.01,Acu-Link.com,2013-01-15 06:52:00,
2013-01-15 02:07:00,39.6,39.1,29.86,ENE,67,1.7,-999.0,98,-99.99,,,0.03,Acu-Link.com,2013-01-15 07:07:00,
2013-01-15 02:22:00,39.7,39.2,29.87,East,90,1.1,-999.0,98,-99.99,,,0.03,Acu-Link.com,2013-01-15 07:22:00,
2013-01-15 02:37:00,39.7,39.2,29.87,NNW,337,4.2,-999.0,98,-99.99,,,0.05,Acu-Link.com,2013-01-15 07:37:00,
2013-01-15 02:53:00,39.7,39.2,29.88,NNW,337,2.7,-999.0,98,-99.99,,,0.10,Acu-Link.com,2013-01-15 07:53:00,
2013-01-15 03:08:00,39.7,39.2,29.86,NE,45,1.7,-999.0,98,-99.99,,,0.16,Acu-Link.com,2013-01-15 08:08:00,
2013-01-15 03:23:00,39.7,39.2,29.85,NNE,22,0.0,-999.0,98,-99.99,,,0.20,Acu-Link.com,2013-01-15 08:23:00,
2013-01-15 03:38:00,39.9,39.4,29.88,West,270,0.0,-999.0,98,-99.99,,,0.22,Acu-Link.com,2013-01-15 08:38:00,
2013-01-15 03:53:00,39.9,39.4,29.86,ENE,67,0.0,-999.0,98,-99.99,,,0.27,Acu-Link.com,2013-01-15 08:53:00,
2013-01-15 04:14:00,39.9,39.4,29.85,ENE,67,2.7,-999.0,98,-99.99,,,0.27,Acu-Link.com,2013-01-15 09:14:00,
2013-01-15 04:29:00,40.1,39.6,29.88,NNW,337,0.0,-999.0,98,-99.99,,,0.33,Acu-Link.com,2013-01-15 09:29:00,
2013-01-15 04:44:00,40.1,39.6,29.84,NNW,337,2.2,-999.0,98,-99.99,,,0.36,Acu-Link.com,2013-01-15 09:44:00,
2013-01-15 04:59:00,40.3,39.8,29.85,West,270,0.0,-999.0,98,-99.99,,,0.38,Acu-Link.com,2013-01-15 09:59:00,
2013-01-15 05:14:00,40.5,40.0,29.88,NNW,337,2.2,-999.0,98,-99.99,,,0.39,Acu-Link.com,2013-01-15 10:14:00,
2013-01-15 05:29:00,40.6,40.1,29.86,ENE,67,2.2,-999.0,98,-99.99,,,0.47,Acu-Link.com,2013-01-15 10:29:00,
2013-01-15 05:44:00,40.8,40.3,29.88,NNW,337,2.2,-999.0,98,-99.99,,,0.51,Acu-Link.com,2013-01-15 10:44:00,
2013-01-15 05:59:00,41.2,40.7,29.87,NNE,22,1.7,-999.0,98,-99.99,,,0.56,Acu-Link.com,2013-01-15 10:59:00,
2013-01-15 06:15:00,41.5,41.0,29.87,SSE,157,0.0,-999.0,98,-99.99,,,0.56,Acu-Link.com,2013-01-15 11:15:00,
2013-01-15 06:30:00,41.7,41.2,29.85,NE,45,2.2,-999.0,98,-99.99,,,0.59,Acu-Link.com,2013-01-15 11:30:00,
2013-01-15 06:45:00,41.9,41.4,29.86,NNE,22,4.7,-999.0,98,-99.99,,,0.60,Acu-Link.com,2013-01-15 11:45:00,
2013-01-15 07:00:00,42.1,41.6,29.86,NNW,337,1.1,-999.0,98,-99.99,,,0.62,Acu-Link.com,2013-01-15 12:00:00,
2013-01-15 07:15:00,42.3,41.8,29.88,NNE,22,4.2,-999.0,98,-99.99,,,0.63,Acu-Link.com,2013-01-15 12:15:00,
2013-01-15 07:30:00,42.4,41.9,29.88,NNE,22,3.7,-999.0,98,-99.99,,,0.63,Acu-Link.com,2013-01-15 12:30:00,
2013-01-15 07:45:00,42.6,42.1,29.89,NNW,337,3.7,-999.0,98,-99.99,,,0.64,Acu-Link.com,2013-01-15 12:45:00,
2013-01-15 08:00:00,42.8,42.3,29.89,NE,45,1.7,-999.0,98,-99.99,,,0.64,Acu-Link.com,2013-01-15 13:00:00,
2013-01-15 08:15:00,42.3,41.8,29.90,North,0,3.7,-999.0,98,-99.99,,,0.64,Acu-Link.com,2013-01-15 13:15:00,
2013-01-15 08:31:00,42.1,41.6,29.91,NNW,337,3.7,-999.0,98,-99.99,,,0.64,Acu-Link.com,2013-01-15 13:31:00,
2013-01-15 08:46:00,41.9,41.4,29.90,NE,45,2.7,-999.0,98,-99.99,,,0.64,Acu-Link.com,2013-01-15 13:46:00,
2013-01-15 09:01:00,41.7,41.2,29.89,NE,45,4.2,-999.0,98,-99.99,,,0.64,Acu-Link.com,2013-01-15 14:01:00,
2013-01-15 09:16:00,41.7,41.2,29.90,North,0,3.2,-999.0,98,-99.99,,,0.64,Acu-Link.com,2013-01-15 14:16:00,
2013-01-15 09:31:00,41.7,41.2,29.91,ENE,67,2.7,-999.0,98,-99.99,,,0.64,Acu-Link.com,2013-01-15 14:31:00,
2013-01-15 09:46:00,41.9,41.4,29.90,NE,45,2.2,-999.0,98,-99.99,,,0.64,Acu-Link.com,2013-01-15 14:46:00,
2013-01-15 10:01:00,42.1,41.6,29.89,East,90,3.2,-999.0,98,-99.99,,,0.64,Acu-Link.com,2013-01-15 15:01:00,
2013-01-15 10:16:00,42.6,42.1,29.89,East,90,2.2,-999.0,98,-99.99,,,0.64,Acu-Link.com,2013-01-15 15:16:00,
2013-01-15 10:31:00,42.8,42.3,29.88,NNE,22,0.0,-999.0,98,-99.99,,,0.64,Acu-Link.com,2013-01-15 15:31:00,
2013-01-15 10:46:00,42.8,42.3,29.88,East,90,3.7,-999.0,98,-99.99,,,0.64,Acu-Link.com,2013-01-15 15:46:00,
2013-01-15 11:02:00,42.4,41.9,29.87,ENE,67,1.7,-999.0,98,-99.99,,,0.64,Acu-Link.com,2013-01-15 16:02:00,
2013-01-15 11:17:00,42.6,42.1,29.86,NE,45,3.2,-999.0,98,-99.99,,,0.64,Acu-Link.com,2013-01-15 16:17:00,
2013-01-15 11:32:00,42.3,41.8,29.85,North,0,3.2,-999.0,98,-99.99,,,0.64,Acu-Link.com,2013-01-15 16:32:00,
2013-01-15 11:47:00,42.3,41.8,29.85,North,0,3.2,-999.0,98,-99.99,,,0.64,Acu-Link.com,2013-01-15 16:47:00,
2013-01-15 12:02:00,42.3,41.8,29.84,NNW,337,3.7,-999.0,98,-99.99,,,0.64,Acu-Link.com,2013-01-15 17:02:00,
2013-01-15 12:17:00,42.3,41.8,29.82,NNE,22,2.2,-999.0,98,-99.99,,,0.65,Acu-Link.com,2013-01-15 17:17:00,
2013-01-15 12:32:00,42.3,41.8,29.82,NNE,22,2.2,-999.0,98,-99.99,,,0.66,Acu-Link.com,2013-01-15 17:32:00,
2013-01-15 12:47:00,41.9,41.4,29.81,NE,45,3.2,-999.0,98,-99.99,,,0.69,Acu-Link.com,2013-01-15 17:47:00,
2013-01-15 13:02:00,41.9,41.4,29.81,East,90,3.7,-999.0,98,-99.99,,,0.78,Acu-Link.com,2013-01-15 18:02:00,
2013-01-15 13:18:00,41.9,41.4,29.80,North,0,2.7,-999.0,98,-99.99,,,0.85,Acu-Link.com,2013-01-15 18:18:00,
2013-01-15 13:33:00,42.1,41.6,29.80,ENE,67,4.2,-999.0,98,-99.99,,,0.87,Acu-Link.com,2013-01-15 18:33:00,
2013-01-15 13:48:00,42.3,41.8,29.79,ENE,67,1.7,-999.0,98,-99.99,,,0.88,Acu-Link.com,2013-01-15 18:48:00,
2013-01-15 14:03:00,42.3,41.8,29.77,NNE,22,1.7,-999.0,98,-99.99,,,0.89,Acu-Link.com,2013-01-15 19:03:00,
2013-01-15 14:18:00,42.4,41.9,29.77,ESE,112,1.7,-999.0,98,-99.99,,,0.90,Acu-Link.com,2013-01-15 19:18:00,
2013-01-15 14:33:00,42.4,41.9,29.77,NNW,337,3.7,-999.0,98,-99.99,,,0.91,Acu-Link.com,2013-01-15 19:33:00,
2013-01-15 14:48:00,42.3,41.8,29.79,NNW,337,1.7,-999.0,98,-99.99,,,0.95,Acu-Link.com,2013-01-15 19:48:00,
2013-01-15 15:03:00,42.3,41.8,29.79,NE,45,1.1,-999.0,98,-99.99,,,0.99,Acu-Link.com,2013-01-15 20:03:00,
2013-01-15 15:18:00,42.1,41.6,29.78,NNW,337,2.7,-999.0,98,-99.99,,,1.09,Acu-Link.com,2013-01-15 20:18:00,
2013-01-15 15:34:00,42.1,41.6,29.79,NW,315,3.2,-999.0,98,-99.99,,,1.22,Acu-Link.com,2013-01-15 20:34:00,
2013-01-15 15:49:00,42.1,41.6,29.79,WNW,292,2.2,-999.0,98,-99.99,,,1.25,Acu-Link.com,2013-01-15 20:49:00,
2013-01-15 16:04:00,42.1,41.6,29.78,NE,45,2.2,-999.0,98,-99.99,,,1.28,Acu-Link.com,2013-01-15 21:04:00,
2013-01-15 16:19:00,42.1,41.6,29.78,NE,45,0.0,-999.0,98,-99.99,,,1.29,Acu-Link.com,2013-01-15 21:19:00,
2013-01-15 16:34:00,42.1,41.6,29.79,NE,45,0.0,-999.0,98,-99.99,,,1.34,Acu-Link.com,2013-01-15 21:34:00,
2013-01-15 16:49:00,42.3,41.8,29.78,WNW,292,0.0,-999.0,98,-99.99,,,1.38,Acu-Link.com,2013-01-15 21:49:00,
2013-01-15 17:04:00,42.4,41.9,29.78,WNW,292,0.0,-999.0,98,-99.99,,,1.40,Acu-Link.com,2013-01-15 22:04:00,
2013-01-15 17:19:00,42.6,42.1,29.79,NE,45,0.0,-999.0,98,-99.99,,,1.41,Acu-Link.com,2013-01-15 22:19:00,
2013-01-15 17:34:00,42.6,42.1,29.78,SSW,202,0.0,-999.0,98,-99.99,,,1.42,Acu-Link.com,2013-01-15 22:34:00,
2013-01-15 17:50:00,42.6,42.1,29.76,SSW,202,0.0,-999.0,98,-99.99,,,1.44,Acu-Link.com,2013-01-15 22:50:00,
2013-01-15 18:05:00,42.6,42.1,29.76,WNW,292,0.0,-999.0,98,-99.99,,,1.44,Acu-Link.com,2013-01-15 23:05:00,
2013-01-15 18:20:00,42.6,42.1,29.76,NW,315,0.0,-999.0,98,-99.99,,,1.45,Acu-Link.com,2013-01-15 23:20:00,
2013-01-15 18:35:00,42.6,42.1,29.78,NNE,22,0.0,-999.0,98,-99.99,,,1.46,Acu-Link.com,2013-01-15 23:35:00,
2013-01-15 18:50:00,42.6,42.1,29.77,North,0,2.2,-999.0,98,-99.99,,,1.47,Acu-Link.com,2013-01-15 23:50:00,
2013-01-15 19:05:00,42.6,42.1,29.78,East,90,1.7,-999.0,98,-99.99,,,1.47,Acu-Link.com,2013-01-16 00:05:00,
2013-01-15 19:20:00,42.6,42.1,29.77,NW,315,0.0,-999.0,98,-99.99,,,1.48,Acu-Link.com,2013-01-16 00:20:00,
2013-01-15 19:35:00,42.6,42.1,29.76,NE,45,0.0,-999.0,98,-99.99,,,1.48,Acu-Link.com,2013-01-16 00:35:00,
2013-01-15 19:50:00,42.6,42.1,29.76,NNE,22,0.0,-999.0,98,-99.99,,,1.48,Acu-Link.com,2013-01-16 00:50:00,
2013-01-15 20:06:00,42.6,42.1,29.75,East,90,0.0,-999.0,98,-99.99,,,1.48,Acu-Link.com,2013-01-16 01:06:00,
2013-01-15 20:21:00,42.6,42.1,29.75,ESE,112,0.0,-999.0,98,-99.99,,,1.48,Acu-Link.com,2013-01-16 01:21:00,
2013-01-15 20:36:00,42.6,42.1,29.76,NNW,337,0.0,-999.0,98,-99.99,,,1.48,Acu-Link.com,2013-01-16 01:36:00,
2013-01-15 20:51:00,42.8,42.3,29.75,SW,225,0.0,-999.0,98,-99.99,,,1.48,Acu-Link.com,2013-01-16 01:51:00,
2013-01-15 21:06:00,42.8,42.3,29.75,WNW,292,0.0,-999.0,98,-99.99,,,1.48,Acu-Link.com,2013-01-16 02:06:00,
2013-01-15 21:21:00,42.8,42.3,29.75,SE,135,0.0,-999.0,98,-99.99,,,1.48,Acu-Link.com,2013-01-16 02:21:00,
2013-01-15 21:36:00,42.8,42.3,29.76,NNE,22,0.0,-999.0,98,-99.99,,,1.48,Acu-Link.com,2013-01-16 02:36:00,
2013-01-15 21:52:00,42.8,42.3,29.75,SSE,157,0.0,-999.0,98,-99.99,,,1.48,Acu-Link.com,2013-01-16 02:52:00,
2013-01-15 22:07:00,43.0,42.5,29.74,NE,45,0.0,-999.0,98,-99.99,,,1.48,Acu-Link.com,2013-01-16 03:07:00,
2013-01-15 22:22:00,43.0,42.5,29.74,NE,45,0.0,-999.0,98,-99.99,,,1.48,Acu-Link.com,2013-01-16 03:22:00,
2013-01-15 22:37:00,43.0,42.5,29.74,ESE,112,0.0,-999.0,98,-99.99,,,1.48,Acu-Link.com,2013-01-16 03:37:00,
2013-01-15 22:52:00,43.2,42.7,29.74,SSE,157,0.0,-999.0,98,-99.99,,,1.48,Acu-Link.com,2013-01-16 03:52:00,
2013-01-15 23:07:00,43.3,42.8,29.73,NNW,337,0.0,-999.0,98,-99.99,,,1.48,Acu-Link.com,2013-01-16 04:07:00,
2013-01-15 23:22:00,43.3,42.8,29.73,NNW,337,0.0,-999.0,98,-99.99,,,1.49,Acu-Link.com,2013-01-16 04:22:00,
2013-01-15 23:37:00,43.3,42.8,29.73,NNW,337,0.0,-999.0,98,-99.99,,,1.49,Acu-Link.com,2013-01-16 04:37:00,
2013-01-15 23:52:00,43.3,42.8,29.73,SW,225,0.0,-999.0,98,-99.99,,,1.49,Acu-Link.com,2013-01-16 04:52:00,